Location: Wiler
(46.4041°N, 7.7840°E)
Time: 17:09:16
(UTC+00:00)

MetOp-B - Pass Details

Date: 09 April 2020
Orbit: 818 x 822 km, 98.7° (Epoch: 25 May)

Event Time Altitude Azimuth Distance (km) Brightness Sun altitude
Exits shadow 20:32:21 39° 181° (S) 1,222 4.7 -22.7°
Maximum altitude 20:34:24 73° 256° (WSW) 861 4.2 -23.0°
Drops below altitude 10° 20:39:47 10° 342° (NNW) 2,430 7.4 -23.7°
Sets 20:42:09 0° 345° (NNW) 3,367 8.3 -24.0°
